Regional Weather Roundup
Issued by NWS

Home | Current Version | Previous Version | Graphics & Text | Print | Product List | Glossary On
Versions: 1 2 3 4 5 6 7 8 9 10 11 12 13 14 15 16 17 18 19 20 21 22 23 24 25 26 27 28 29 30 31 32 33 34 35 36 37 38 39 40 41 42 43 44 45 46 47 48 49 50
000
ASUS43 KMPX 292001
RWRMN
WEATHER ROUNDUP FOR MINNESOTA
NATIONAL WEATHER SERVICE TWIN CITIES/CHANHASSEN MN
300 PM CDT MON AUG 29 2016


NOTE: "FAIR" INDICATES FEW OR NO CLOUDS BELOW 12,000 FEET WITH NO
SIGNIFICANT WEATHER AND/OR OBSTRUCTIONS TO VISIBILITY. N/A MEANS
CURRENT SKY AND/OR WEATHER CONDITIONS ARE NOT AVAILABLE.

MNZ060>063-068>070-292100-
   Twin Cities Metro

CITY           SKY/WX    TMP DP  RH WIND       PRES   REMARKS
TWIN CITIES    CLOUDY    83  70  64 SW8G20    30.15S
ST PAUL        MOSUNNY   81  72  74 S9        30.15S
CRYSTAL        MOSUNNY   83  68  60 SW14      30.13S
BLAINE         PTSUNNY   86  70  58 S17       30.14S HX  90
LAKEVILLE      CLOUDY    81  72  74 S10       30.16F
EDEN PRAIRIE   CLOUDY    84  71  65 S14       30.14F
LAKEVILLE      CLOUDY    81  72  74 S10       30.16F
SOUTH ST PAUL  PTSUNNY   82  70  67 S10G16    30.15F
LAKE ELMO      FAIR      81  72  74 S12G18    30.16S
$$
MNZ001>005-007-008-013>017-022>024-027-028-292100-
   Northwest Minnesota

CITY           SKY/WX    TMP DP  RH WIND       PRES   REMARKS
BEMIDJI        CLOUDY    76  69  76 W15       30.15F
HALLOCK        SUNNY     75  55  50 W12G20    30.16S
ROSEAU         SUNNY     79  64  61 NW12      30.13S
WARROAD        MOSUNNY   79  66  65 W12G17    30.12S
THIEF RVR FALL SUNNY     77  64  64 NW13G20   30.17R
CROOKSTON      SUNNY     79  64  61 NW15      30.16S
FOSSTON        PTSUNNY   75  64  69 NW9       30.17F
DETROIT LAKES  PTSUNNY   79  70  73 NW7       30.18S
MOORHEAD       PTSUNNY   79  68  69 N8        30.16R
PARK RAPIDS    PTSUNNY   82  70  66 W12       30.15S
MAHNOMEN       CLOUDY    72  68  88 NW7       30.17S
$$
MNZ006-009>011-018-025>026-292100-
   North Central Minnesota

CITY           SKY/WX    TMP DP  RH WIND       PRES   REMARKS
BAUDETTE       SUNNY     75  67  76 NW10      30.12S
FLAG ISLAND    MOSUNNY   73  64  73 CALM      30.10S
INTL FALLS     PTSUNNY   77  66  68 W8        30.10S
WASKISH          N/A     77  70  78 SW10      30.13F
BIG FORK       CLOUDY    77  68  73 W5        30.14S
LONGVILLE      CLOUDY    81  70  69 W5        30.14F
GRAND RAPIDS   CLOUDY    78  69  73 VRB7      30.16S
CRANE LAKE     PTSUNNY   79  66  65 W6        30.11S
ORR            CLOUDY    75  64  69 CALM      30.10S
COOK           CLOUDY    75  66  73 W9        30.13S
WALKER         MOCLDY    79  69  72 W12G17    30.14F
$$
MNZ012-019>021-037-292100-
   Northeast Minnesota

CITY           SKY/WX    TMP DP  RH WIND       PRES   REMARKS
DULUTH         MOSUNNY   80  65  59 SW13      30.14S
ELY            SUNNY     79  64  61 W8        30.11F
HIBBING        CLOUDY    76  68  76 W6        30.13S
EVELETH        CLOUDY    78  67  70 W8        30.15R
DULUTH HARBOR  SUNNY     81  70  69 SW10      30.12F
TWO HARBORS    SUNNY     79  70  73 SW9       30.10F
SILVER BAY     CLOUDY    75  66  73 SE5       30.10F
GRAND MARAIS     N/A     69  62  78 W6        30.11S
G MARAIS ARPRT CLOUDY    72  63  73 S6        30.15S
$$
MNZ029>031-032-039>041-046>048-054>057-064-292100-
   West Central Minnesota

CITY           SKY/WX    TMP DP  RH WIND       PRES   REMARKS
FERGUS FALLS   CLOUDY    81  70  69 NW9       30.15F
WHEATON        MOSUNNY   84  73  70 W5        30.15S HX  91
ALEXANDRIA     MOSUNNY   84  72  67 SW13      30.17S
ELBOW LAKE     PTSUNNY   83  71  66 SW8       30.15F HAZE
WADENA         MOSUNNY   81  66  61 SW12G17   30.16S
GLENWOOD       SUNNY     84  72  65 SW12G18   30.16S
APPLETON       SUNNY     84  72  65 S6        30.13S
BENSON         SUNNY     84  70  61 SW8       30.13F
ORTONVILLE     SUNNY     84  70  61 CALM      30.13F
MADISON        SUNNY     84  72  65 S7        30.13S
WILLMAR        FAIR      84  73  70 S3        30.16R HX  91
$$
MNZ033>034-036-042>043-049>051-058-059-292100-
   Central Minnesota

CITY           SKY/WX    TMP DP  RH WIND       PRES   REMARKS
ST CLOUD       SUNNY     85  73  67 S15       30.14S HX  91
SAUK CENTRE    FAIR      83  72  68 SW9       30.15F
PAYNESVILLE    SUNNY     85  71  62 S9        30.16S HX  90
AITKIN         SUNNY     84  64  51 SW7       30.14S
PINE RIVER     SUNNY     81  70  69 SW6       30.17F
BRAINERD       SUNNY     81  67  62 W9        30.15F
STAPLES        MOSUNNY   82  66  57 W10       30.16S
LONG PRAIRIE   FAIR      82  72  69 S9        30.16S
LITTLE FALLS   MOSUNNY   82  68  61 SW5       30.15S
LITCHFIELD     CLOUDY    84  73  70 S7        30.15R HX  91
BUFFALO        CLOUDY    83  69  61 S13G18    30.16S
MAPLE LAKE     CLOUDY    85  73  68 S5        30.16S HX  92
HUTCHINSON     SUNNY     82  74  76 S10       30.16S
$$
MNZ037-044-045-052-053-292100-
   East Central Minnesota

CITY           SKY/WX    TMP DP  RH WIND       PRES   REMARKS
PRINCETON      SUNNY     88  72  58 S12       30.14S HX  94
MORA           SUNNY     84  70  61 SW6       30.15F
CAMBRIDGE      MOSUNNY   86  70  58 SW8G16    30.13S HX  90
RUSH CITY      RAIN      85  70  61 SW6       30.14S
MOOSE LAKE     SUNNY     82  68  61 SW7       30.13S
HINCKLEY       FAIR      86  72  62 SW12      30.13F HX  92
CLOQUET        SUNNY     81  63  54 SW14      30.15S
MCGREGOR       SUNNY     81  66  61 SW8       30.15F
$$
MNZ071>073-080-081-089-090-097-098-292100-
   Southwest Minnesota

CITY           SKY/WX    TMP DP  RH WIND       PRES   REMARKS
MONTEVIDEO     CLOUDY    86  73  66 SW10      30.15S HX  93
GRANITE FALLS  MOSUNNY   84  74  71 SE8       30.15F HX  91
CANBY          CLOUDY    87  73  61 SW8       30.14S HX  94
MARSHALL       PTSUNNY   84  74  71 S10       30.14F HX  91
REDWOOD FALLS  CLOUDY    83  71  67 S14       30.14F
OLIVIA         MOSUNNY   82  72  69 S12       30.14S
PIPESTONE      PTSUNNY   81  72  74 S12       30.19S
WINDOM         PTSUNNY   84  70  61 S8        30.18F
WORTHINGTON    MOSUNNY   84  70  62 S8        30.19F
JACKSON        CLOUDY    82  68  61 SW9       30.19F
TRACY          PTSUNNY   84  74  71 S8        30.16F HX  90
SLAYTON        MOSUNNY   81  72  74 S10       30.20S
$$
MNZ065>067-074>077-082>085-091>093-292100-
   South Central Minnesota

CITY           SKY/WX    TMP DP  RH WIND       PRES   REMARKS
NEW ULM        MOSUNNY   82  73  74 S12       30.15F
ST JAMES       MOSUNNY   84  73  70 S8        30.17F HX  91
FAIRMONT       CLOUDY    82  72  71 S13       30.19S
GLENCOE        MOSUNNY   83  75  77 S8G16     30.15F HX  90
FARIBAULT      CLOUDY    84  73  70 S8        30.17F HX  91
OWATONNA       CLOUDY    84  72  65 S10       30.18F
WASECA         CLOUDY    82  72  69 S12       30.19F
ALBERT LEA     CLOUDY    79  66  65 S7        30.19F
$$
MNZ078>079-086>088-094>096-292100-
   Southeast Minnesota

CITY           SKY/WX    TMP DP  RH WIND       PRES   REMARKS
ROCHESTER      CLOUDY    80  71  74 S8        30.20F
RED WING       CLOUDY    82  70  65 S3        30.15F
DODGE CENTER   CLOUDY    82  72  69 S12       30.20S
WINONA         CLOUDY    81  70  69 CALM      30.17F
AUSTIN         CLOUDY    77  72  83 S6        30.19F
PRESTON        CLOUDY    78  71  78 S6        30.20F
$$
ABBREVIATIONS USED IN REMARKS
   TC - TEMPERATURES IN CELSIUS
  WCI - WIND CHILL INDEX
   HX - HEAT INDEX
  VSB - VISIBILITY
$$




USA.gov is the U.S. government's official web portal to all federal, state and local government web resources and services.